Wind_Speed
25 25 28 29 29 29 27 27 23 22 22 23 23 22 21 20 29 28 31 30 28 26
25 26 28 29 27 26 25 23 21 18 19 22 23 24 27 27 32 32 30 29 29 27
26 25 26 25 25 24 22 20 19 21 25 26 24 24 23 27 29 26 25 27 29 28
26 26 25 24 23 22 21 18 21 21 19 13 16 17 18 21 19 21 24 28 31 32
26 26 25 24 23 21 18 21 17 17 14 14 14 14 16 18 22 24 23 21 30 30
27 27 27 26 24 21 19 18 15 15 15 13 13 12 13 16 21 22 23 24 28 28
28 28 26 24 21 21 19 16 15 15 16 14 10 9 10 14 18 22 24 24 26 30
28 26 27 27 25 22 18 18 18 18 15 10 7 6 10 17 21 25 26 26 26 28
27 29 29 30 26 20 20 20 20 20 19 15 4 4 11 21 25 26 27 26 25 23
29 29 31 28 22 21 21 23 23 24 20 15 13 10 15 22 27 27 28 28 27 27
31 28 29 24 23 22 23 26 25 26 25 24 19 20 23 27 30 30 29 29 26 26
30 28 28 25 23 22 24 25 25 27 24 27 27 27 28 30 29 30 30 28 31 28
32 28 27 24 24 24 24 25 24 27 27 32 32 30 29 29 29 29 29 28 30 30
34 29 28 25 27 26 25 24 25 27 28 33 33 31 30 28 27 27 27 27 26 27
Wind_Direction
306 302 298 294 291 285 283 281 277 272 266 263 255 242 231 246 246 233 222 215 219 220
313 309 304 303 299 294 292 290 288 277 272 262 251 243 240 252 239 231 215 206 208 207
319 319 317 314 310 307 304 300 292 288 282 262 243 237 255 246 226 214 214 204 203 210
325 325 325 324 321 315 308 298 305 301 292 272 274 262 260 230 239 230 229 225 214 203
332 333 333 334 330 319 305 318 306 310 300 286 281 265 251 236 227 219 208 204 188 181
340 342 340 333 330 328 327 325 322 313 308 299 282 266 245 227 213 210 203 196 188 179
347 346 342 339 335 334 338 328 325 320 319 309 295 264 230 207 197 188 184 180 170 172
349 347 344 342 344 343 342 340 336 332 338 331 310 253 200 180 176 171 167 169 169 162
356 351 350 354 354 351 354 352 348 352 356 355 333 205 174 167 161 161 159 155 155 156
1 354 356 360 359 4 0 360 2 8 25 34 54 114 142 150 149 148 146 147 152 153
1 359 359 5 9 10 7 7 11 32 58 61 73 102 120 131 132 130 135 143 147 149
2 2 7 13 13 11 13 17 30 49 60 62 87 106 112 117 118 121 125 133 125 136
7 10 13 15 15 19 20 25 39 53 65 69 86 98 104 109 113 118 117 126 126 137
17 17 20 22 27 29 25 32 45 57 75 74 81 92 100 106 108 114 116 121 125 135
Height
797 791 785 778 773 767 763 760 757 756 755 754 753 754 755 756 760 762 764 768 775 780
790 783 776 770 764 759 755 751 749 746 744 743 743 744 745 746 747 750 753 757 765 772
782 776 770 763 758 753 748 744 740 737 734 732 732 733 735 735 736 740 744 749 756 763
778 771 764 758 752 746 741 736 732 728 726 725 726 726 727 727 730 734 739 743 748 754
774 767 760 754 748 741 735 730 727 725 722 720 719 719 720 721 724 727 732 736 741 747
771 764 758 750 743 736 731 726 722 719 716 714 713 713 713 715 717 721 726 730 737 743
769 762 755 747 740 734 728 723 719 715 711 708 707 706 707 709 713 718 723 729 735 741
768 761 753 745 738 732 726 721 716 711 706 702 700 700 702 706 710 716 723 729 736 741
767 760 752 744 738 731 726 720 714 708 702 697 695 695 698 703 709 716 723 729 736 743
768 760 752 745 739 733 727 720 714 707 702 699 695 695 699 704 711 717 724 731 737 744
769 761 754 748 741 735 729 723 716 712 707 703 702 702 705 709 716 722 729 736 741 746
771 763 758 751 745 739 733 726 722 718 715 711 710 711 714 717 723 729 735 742 745 752
774 767 762 756 750 744 738 733 729 726 724 721 720 722 724 726 731 736 741 749 755 760
778 772 766 761 754 749 744 740 736 733 733 732 732 734 735 737 740 744 749 754 760 766